This is the latest recevied weather packets stored in our database for station/object OK0BH-6. If no packets are shown the sender has not sent any weather packets the latest 10 day(s).
| Time | Temp. | Humidity | Pressure | Rain* | Wind** | Luminosity | Snow |
|---|---|---|---|---|---|---|---|
| 1787584220 | 27.22° C | 38% | 1021.3 hPa | - | - | - | - |
| 1787583645 | 26.11° C | 38% | 1021.3 hPa | - | - | - | - |
| 1787583070 | 25.56° C | 38% | 1021.5 hPa | - | - | - | - |
| 1787582495 | 25.56° C | 38% | 1021.4 hPa | - | - | - | - |
| 1787581920 | 25° C | 38% | 1021.4 hPa | - | - | - | - |
| 1787581346 | 25.56° C | 38% | 1021.3 hPa | - | - | - | - |
| 1787580771 | 26.11° C | 38% | 1021.4 hPa | - | - | - | - |
| 1787580196 | 26.67° C | 37% | 1021.6 hPa | - | - | - | - |
| 1787579621 | 26.11° C | 39% | 1021.6 hPa | - | - | - | - |
| 1787579046 | 25.56° C | 38% | 1021.6 hPa | - | - | - | - |
| 1787578471 | 26.11° C | 38% | 1021.8 hPa | - | - | - | - |
| 1787577896 | 26.67° C | 39% | 1021.9 hPa | - | - | - | - |
| 1787577321 | 25.56° C | 40% | 1021.9 hPa | - | - | - | - |
| 1787576747 | 24.44° C | 40% | 1022.1 hPa | - | - | - | - |
| 1787576172 | 24.44° C | 40% | 1022 hPa | - | - | - | - |
| 1787575597 | 23.89° C | 40% | 1022.1 hPa | - | - | - | - |
| 1787575022 | 23.89° C | 41% | 1022.3 hPa | - | - | - | - |
| 1787574447 | 23.33° C | 41% | 1022.2 hPa | - | - | - | - |
| 1787573872 | 22.78° C | 41% | 1022.3 hPa | - | - | - | - |
| 1787573297 | 22.78° C | 41% | 1022.3 hPa | - | - | - | - |
| 1787572722 | 22.78° C | 42% | 1022.4 hPa | - | - | - | - |
| 1787572148 | 22.22° C | 42% | 1022.4 hPa | - | - | - | - |
| 1787571573 | 21.67° C | 42% | 1022.6 hPa | - | - | - | - |
| 1787570998 | 21.67° C | 42% | 1022.6 hPa | - | - | - | - |
| 1787570423 | 21.11° C | 43% | 1022.6 hPa | - | - | - | - |
* Rain since midnight (hover to see other rain measurements)
** Current wind speed in m/s (hover to see current wind gust speed)